SCP
0 0 0 0 0 0 0 0 0 0 0 0 0 0 0 0 0 0 0 0 0 0 0 0 0 0 0 0 0 0 0 0 0 0 0 0 0 0 0 0 0 0 0 0
0 0 0 0 0 0 0 0 0 0 0 0 0 0 0 0 0 0 0 0 0 0 0 0 0 0 0 0 0 0 0 0 0 0 0 0 0 0 0 0 0 0 0 0
0 0 0 0 0 0 0 0 0 0 0 0 0 0 0 0 0 0 0 0 0 0 0 0 0 0 0 0 0 0 0 0 0 0 0 0 0 0 0 0 0 0 0 0
0 0 0 0 0 0 0 0 0 0 0 0 0 0 0 0 0 0 0 0 0 0 0 0 0 0 0 0 0 0 0 0 0 0 0 0 0 0 0 0 0 0 0 0
0 0 0 0 0 0 0 0 0 0 0 0 0 0 0 0 0 0 0 0 0 0 0 0 0 0 0 0 0 0 0 0 0 0 0 0 0 0 0 0 0 0 0 0
0 0 0 0 0 0 0 0 0 0 0 0 0 0 0 0 0 0 0 0 0 0 0 0 0 0 0 0 0 0 0 0 0 0 0 0 0 0 0 0 0 0 0 0
0 0 0 0 0 0 0 0 0 0 0 0 0 0 0 0 0 0 0 0 0 0 0 0 0 0 0 0 0 0 0 0 0 0 0 0 0 0 0 0 0 0 0 0
0 0 0 0 0 0 0 0 0 0 0 0 0 0 0 0 0 0 0 0 0 0 0 0 0 0 0 0 0 0 0 0 0 0 0 0 0 0 0 0 0 0 0 0
0 0 0 0 0 0 0 0 0 0 0 0 0 0 0 0 0 0 0 0 0 0 0 0 0 0 0 0 0 0 0 0 0 0 0 0 0 0 0 0 0 0 0 0
0 0 0 0 0 0 0 0 0 0 0 0 0 0 0 0 0 0 0 0 0 0 0 0 0 0 0 0 0 0 0 0 0 0 0 0 0 0 0 0 0 0 0 0
0 0 0 0 0 0 0 0 0 0 0 0 0 0 0 0 0 0 0 0 0 0 0 0 0 0 0 0 0 0 0 0 0 0 0 0 0 0 0 0 0 0 0 0
0 0 0 0 0 0 0 0 0 0 0 0 0 0 0 0 0 0 0 0 0 0 0 0 0 0 0 0 0 0 0 0 0 0 0 0 0 0 0 0 0 0 0 0
0 0 0 0 0 0 0 0 0 0 0 0 0 0 0 0 0 0 0 0 0 0 0 0 0 0 0 0 0 0 0 0 0 0 0 0 0 0 0 0 0 0 0 0
0 0 0 0 0 0 0 0 0 0 0 0 0 0 0 0 0 0 0 0 0 0 0 0 0 0 0 0 0 0 0 0 0 0 0 0 0 0 0 0 0 0 0 0
0 0 0 0 0 0 0 0 0 0 0 0 0 0 0 0 0 0 0 0 0 0 0 0 0 0 0 0 0 0 0 0 0 0 0 0 0 0 0 0 0 0 0 0
0 0 0 0 0 0 0 0 0 0 0 0 0 0 0 0 0 0 0 0 0 0 0 0 0 0 0 0 0 0 0 0 0 0 0 0 0 0 0 0 0 0 0 0
0 0 0 0 0 0 0 0 0 0 0 0 0 0 0 0 0 0 0 0 0 0 0 0 0 0 0 0 0 0 0 0 0 0 0 0 0 0 0 0 0 0 0 0
0 0 0 0 0 0 0 0 0 0 0 0 0 0 0 0 0 0 0 0 0 0 0 0 0 0 0 0 0 0 0 0 0 0 0 0 0 0 0 0 0 0 0 0
0 0 0 0 0 0 0 0 0 0 0 0 0 0 0 0 0 0 0 0 0 0 0 0 0 0 0 0 0 0 0 0 0 0 0 0 0 0 0 0 0 0 0 0
0 0 0 0 0 0 0 0 0 0 0 0 0 0 0 0 0 0 0 0 0 0 0 0 0 0 0 0 0 0 0 0 0 0 0 0 0 0 0 0 0 0 0 0
0 0 0 0 0 0 0 0 0 0 0 0 0 0 0 0 0 0 0 0 0 0 0 0 0 0 0 0 0 0 0 0 0 0 0 0 0 0 0 0 0 0 0 0
0 0 0 0 0 0 0 0 0 0 0 0 0 0 0 0 0 0 0 0 0 0 0 0 0 0 0 0 0 0 0 0 0 0 0 0 0 0 0 0 0 0 0 0
0 0 0 0 0 0 0 0 0 0 0 0 0 0 0 0 0 0 0 0 0 0 0 0 0 0 0 0 0 0 0 0 0 0 0 0 0 0 0 0 0 0 0 0
0 0 0 0 0 0 0 0 0 0 0 0 0 0 0 0 0 0 0 0 0 0 0 0 0 0 0 0 0 0 0 0 0 0 0 0 0 0 0 0 0 0 0 0
0 0 0 0 0 0 0 0 0 0 0 0 0 0 0 0 0 0 0 0 0 0 0 0 0 0 0 0 0 0 0 0 0 0 0 0 0 0 0 0 0 0 0 0
0 0 0 0 0 0 0 0 0 0 0 0 0 0 0 0 0 0 0 0 0 0 0 0 0 0 0 0 0 0 0 0 0 0 0 0 0 0 0 0 0 0 0 0
0 0 0 0 0 0 0 0 0 0 0 0 0 0 0 0 0 0 0 0 0 0 0 0 0 0 0 0 0 0 0 0 0 0 0 0 0 0 0 0 0 0 0 0
Wind_Speed
4 4 2 3 3 5 4 6 7 6 6 8 6 5 3 3 2 2 3 3 4 4 4 5 5 5 5 6 6 5 6 6 7 7 7 7 7 7 7 7 8 7 8 8
2 2 0 1 2 3 3 4 3 2 5 5 2 2 2 3 4 4 5 5 5 5 5 5 6 6 6 6 6 5 6 7 7 7 7 7 8 8 8 8 7 7 8 8
2 3 3 3 4 4 3 4 6 6 7 3 3 5 6 6 5 6 6 5 5 5 5 6 6 5 6 6 6 6 7 7 8 7 8 8 9 8 8 8 7 8 8 8
2 2 3 8 3 4 4 3 4 4 4 5 6 4 3 5 5 6 5 5 5 5 5 5 4 5 5 6 6 6 7 8 8 8 8 8 8 8 8 7 7 7 8 9
4 2 5 6 3 6 6 4 5 6 4 3 3 3 4 5 5 6 5 5 4 5 4 4 6 5 5 6 6 7 7 8 8 8 9 9 9 9 8 7 8 8 8 8
4 3 5 9 4 5 5 4 6 7 7 6 6 1 6 5 6 5 5 4 4 4 3 5 5 4 5 6 6 7 8 8 8 8 8 9 9 8 7 7 8 8 8 8
4 4 8 7 4 8 4 9 6 9 9 9 9 8 5 3 5 5 4 4 4 4 4 5 5 4 5 6 7 7 8 8 8 8 8 8 7 6 7 7 8 8 8 8
5 3 9 4 9 10 11 4 6 9 9 10 9 5 3 4 5 5 4 4 4 3 5 5 4 3 5 6 7 7 7 8 8 8 7 7 7 7 7 7 7 7 7 8
8 8 6 5 8 6 5 6 7 9 8 9 7 6 6 5 6 5 5 5 3 4 5 5 4 3 5 6 6 7 7 8 8 9 7 6 6 7 7 6 5 6 5 6
3 7 5 5 4 4 6 6 7 8 8 9 8 8 7 6 5 5 5 5 3 3 4 5 5 4 5 6 6 6 7 8 7 8 8 7 5 5 5 6 6 6 6 6
4 6 4 5 6 6 5 4 5 6 8 10 10 8 8 7 6 6 5 4 4 4 5 6 5 5 5 5 5 6 7 7 7 7 7 7 7 5 6 6 5 6 5 5
7 8 6 8 6 7 8 8 9 9 7 7 9 9 8 7 7 6 6 4 4 5 5 6 5 6 5 5 4 5 6 7 6 6 6 6 6 7 6 6 8 8 8 7
7 4 5 5 3 6 8 9 9 10 11 9 8 8 8 7 6 6 5 5 6 6 6 5 5 6 6 4 4 5 6 7 6 6 6 6 6 6 7 8 7 7 7 6
6 3 3 4 5 7 7 7 7 6 6 6 6 6 6 5 5 6 7 7 6 5 5 5 5 6 5 4 4 5 6 6 6 5 6 6 6 5 5 6 7 6 6 6
3 3 3 2 0 2 3 4 4 5 5 4 4 5 6 6 7 7 6 4 4 4 5 5 5 7 5 4 4 5 5 5 5 5 5 5 5 5 5 5 5 5 5 5
4 3 3 3 2 2 2 3 4 5 4 4 5 5 6 6 5 5 5 5 5 6 6 5 6 6 4 4 4 4 5 8 7 5 5 5 5 5 5 5 5 5 5 5
4 4 3 3 2 2 1 2 3 3 3 4 5 5 4 4 5 6 6 6 6 7 6 6 7 5 4 4 4 4 4 6 8 6 5 5 5 5 5 5 5 5 5 5
3 2 2 0 0 1 1 1 1 1 3 4 4 5 6 7 8 8 7 5 4 6 7 7 6 4 4 4 3 3 4 4 4 5 5 5 5 5 4 4 5 6 5 5
8 7 7 6 4 2 2 1 1 1 1 1 3 5 6 8 7 6 4 4 6 8 7 6 6 5 5 5 4 3 3 4 5 4 4 6 5 5 4 5 5 5 5 5
9 8 7 7 6 4 3 2 2 1 1 1 3 4 5 7 6 5 5 6 8 7 5 4 4 4 4 4 4 2 3 4 4 4 4 4 5 5 5 5 5 5 5 4
8 8 8 7 6 5 4 3 2 2 3 2 3 5 6 6 5 5 5 7 7 6 5 6 4 4 3 3 3 2 3 3 4 4 4 4 4 5 5 5 5 5 4 4
6 7 7 7 6 6 5 3 2 3 3 2 3 4 4 5 5 5 7 7 6 5 4 4 4 5 4 3 2 2 3 3 3 3 3 3 3 4 4 5 4 5 4 4
4 4 5 5 5 5 5 4 3 3 3 4 4 5 5 6 4 5 7 6 4 6 5 4 5 6 5 3 2 2 3 3 3 3 3 3 3 3 4 4 4 4 4 4
4 5 5 5 4 4 5 5 5 4 4 4 4 5 4 4 4 5 5 4 5 6 5 5 7 6 5 2 2 2 2 2 2 2 3 3 3 3 3 3 4 4 4 4
5 5 4 5 4 3 4 5 6 5 5 4 5 5 3 3 4 4 3 4 5 5 4 4 6 6 4 2 2 2 2 2 2 2 2 2 2 2 3 3 3 3 3 4
4 4 4 4 4 4 3 3 3 4 4 4 5 5 4 3 3 3 2 3 3 4 3 2 3 4 3 3 2 2 2 2 2 2 2 2 2 2 2 3 4 3 3 3
4 3 3 3 3 3 2 2 3 4 4 4 5 5 5 4 3 2 2 1 1 2 2 3 3 3 3 2 2 2 1 1 1 1 1 1 1 2 2 3 2 2 3 3
Wind_Direction
235 249 231 237 215 173 179 181 180 223 222 238 226 221 222 205 197 229 265 280 288 293 297 305 311 311 310 307 308 312 313 307 300 299 300 299 298 297 296 293 292 289 289 285
334 348 258 250 223 159 164 169 185 191 246 246 205 158 192 203 207 238 261 275 286 294 298 299 301 303 307 305 305 309 305 300 300 303 304 302 301 299 297 295 292 292 289 286
271 325 36 279 232 187 191 189 164 194 231 190 182 208 214 213 220 238 256 268 276 283 284 286 288 292 296 297 304 307 302 301 303 303 303 302 304 305 299 295 293 293 290 287
124 67 239 251 267 182 174 207 201 214 218 192 205 222 228 207 213 239 253 262 271 275 281 284 284 290 293 299 304 304 304 305 306 305 305 304 303 301 298 295 294 291 289 288
121 166 281 288 215 158 154 237 215 199 203 175 102 49 309 233 211 221 234 242 249 257 264 277 286 291 302 304 307 307 306 306 307 307 307 307 305 301 298 297 297 293 290 289
127 155 236 252 220 151 104 277 226 184 186 160 121 137 261 237 206 222 237 242 251 267 274 280 284 294 299 301 307 305 304 304 305 304 302 301 298 296 293 293 292 295 293 289
150 199 257 249 147 128 165 243 205 180 179 166 180 202 226 205 197 211 228 241 251 262 268 271 283 294 293 299 298 296 301 304 305 303 300 294 292 291 296 298 299 298 297 294
144 180 257 198 142 177 210 204 166 175 178 182 204 219 219 205 209 219 233 248 250 253 270 279 286 284 290 293 291 301 305 307 308 306 304 306 302 303 303 302 304 305 305 305
185 210 239 202 201 212 166 168 180 179 185 183 192 210 207 210 217 226 231 241 243 242 269 286 283 267 279 285 299 307 310 310 309 310 307 303 303 307 310 307 303 304 307 306
247 268 256 235 230 202 187 186 182 176 172 171 188 202 204 210 216 225 233 237 235 240 264 280 283 276 267 283 299 306 309 310 311 313 314 314 309 302 302 304 306 308 309 308
263 276 294 270 221 198 182 167 160 166 176 182 186 196 198 205 215 220 226 230 226 234 252 267 280 284 284 290 302 308 309 309 312 311 310 314 313 300 295 284 276 283 293 292
231 233 205 238 223 180 172 184 181 175 185 191 190 196 194 204 212 211 218 222 230 241 250 265 277 283 289 292 296 303 309 312 313 312 313 313 315 316 300 283 293 282 268 269
242 249 216 252 214 185 190 194 187 186 189 194 198 193 190 201 208 208 216 220 229 239 248 261 274 282 288 293 295 294 296 302 306 310 313 315 316 317 319 320 317 313 310 304
251 216 236 229 215 203 197 194 184 189 196 191 188 184 186 197 202 208 221 225 229 237 248 258 269 277 283 291 294 296 297 301 306 304 307 307 307 308 307 311 319 321 320 320
292 205 228 267 234 176 173 155 168 196 196 194 183 185 190 197 209 220 227 224 225 239 250 257 267 276 283 287 290 296 301 303 306 306 305 303 305 309 311 311 309 310 315 320
326 14 37 47 59 87 111 157 193 213 204 202 201 206 205 208 216 224 223 207 210 236 246 248 258 267 275 278 287 293 296 305 314 309 310 314 317 318 321 321 318 316 316 318
34 18 25 35 43 71 136 180 201 208 200 210 214 206 201 206 222 233 233 223 221 234 240 241 251 262 265 266 272 281 293 305 317 316 312 312 312 313 316 317 316 316 314 312
48 35 41 52 168 91 31 39 77 152 203 211 192 183 197 209 225 233 235 230 233 251 251 242 245 253 259 262 264 274 287 295 303 305 309 312 312 309 311 314 318 321 321 323
30 30 29 30 32 49 38 20 349 289 267 180 178 204 221 228 231 234 224 219 232 250 255 239 235 237 250 260 271 267 285 297 304 305 307 312 317 318 319 320 322 324 324 326
29 27 27 26 29 33 23 9 4 4 316 209 200 222 240 244 237 229 216 227 233 233 238 232 223 230 243 256 271 265 280 292 300 306 311 318 322 323 324 326 328 330 330 330
20 19 20 16 8 6 5 352 340 313 297 261 229 235 245 251 240 224 223 246 251 232 229 227 220 227 234 243 262 263 274 286 294 302 310 315 319 321 325 330 334 336 333 332
5 6 4 2 358 344 334 331 319 303 300 285 271 262 260 262 255 241 235 239 251 220 210 215 217 223 226 228 233 254 268 279 288 299 307 312 316 319 323 328 331 333 335 334
344 342 341 339 327 311 316 324 324 312 296 281 272 266 259 257 245 239 259 250 234 217 208 212 212 216 216 209 220 244 261 271 283 296 302 305 307 311 316 322 326 330 335 341
329 327 321 317 321 332 327 317 316 307 295 286 277 269 264 273 273 250 252 254 224 209 209 210 207 210 205 203 216 235 251 267 279 292 299 304 310 315 318 323 329 333 342 352
311 310 314 323 322 303 293 304 315 317 318 309 303 297 278 247 253 269 260 239 218 207 215 210 203 201 195 203 218 229 242 260 276 285 294 303 315 322 325 332 338 343 349 357
303 297 290 282 273 274 284 296 300 303 310 313 311 310 310 301 284 278 260 236 212 202 202 196 188 188 194 198 211 224 234 255 273 282 293 303 320 333 337 341 349 354 356 360
304 302 306 315 310 298 296 296 298 302 300 295 297 301 306 307 302 291 276 250 210 196 193 189 186 187 197 199 197 202 218 243 273 289 298 311 331 340 343 351 355 356 4 12